Samos, Greece
Current Conditions -  °F | °C
As of 6:50 AM on Saturday 25 Oct 2014 (Local Time) from LGSM Reporting Station
Broken Clouds Broken Clouds  
Wind Chill: 66°   Ceiling: 9000
Heat Index: 66°   Visibility: 6mi
Dew Point: 63°   Wind: 14mph
Humidity: 88%   Direction: 230°SW
Pressure: 29.8"   Gusts: NA
Location:  37.76°N, 26.98°E
Report Text: LGSM 250350Z 23012KT 9999 SCT018TCU BKN090 19/17 Q1009
Loading
Personal Weather Stations






























Interactive Weather Map
Tropical Storm Tracking
New forecast layout! Learn more

10-Day Weather Forecast

Advertisements
Track Severe Weather on mobile